[Date Prev][Date Next][Thread Prev][Thread Next][Date Index][Thread Index]

[jamsat-news:1412] jas2info #209



========================   最新情報   ==============================

        Last updated :Thu4JAN2001  16:30 (JST) #209
====================================================================
   
  1)二十一世紀初頭の観測でアマチュア通信衛星情報、FOシリーズの軌道要素、
  テレメトリ、QSOの状況等をまとめてみました.
   
   FO−29の2001年1月4日(木)の10:59(JST)のパスでは
  JARLホームページのとうりアナログ運用でした。
  今まで観測したテレメトリーと分析結果を掲載しておきます.

 AS21645C1     4JAN2001
 10:59-11:08(JST)
 Freq.435.800-.788MHz

 HI HI AE C7 88 55 00 D4 67 CF 09 7C 46 8F 7O 5F 91 8F B0 6B B0 AB AE B1 B0 
 HI HI AE C7 88 55 00 D4 67 CF 09 7C 3B 7D 83 5F 91 8F B0 8E B0 AB AE B1 B0 
 HI HI AE C7 88 55 00 D4 67 CF 09 7C 32 67 89 5F 91 90 B0 95 AF AB AE B1 B0 
 HI HI AE C7 88 55 00 D4 67 CF 09 7C 30 51 8A 5F 92 90 B0 75 AF AA AE B1 B0 
 HI HI AE C7 88 55 00 D4 67 CF 09 7C 36 3E 89 5F 92 90 B0 98 AF AA AD B0 B0 
 HI HI AE C7 88 55 00 D4 67 CF 09 7C 43       60 92 90 B0 7B AF AA AD B1 B0 
 HI HI AE C7 88 55 00 D4 67 CF 09 7C 56 26 84 60 92 90 B0 75 AF AA AD B1 B0 
 HI HI AE C7 88 55 00 D4 67 CF 09 7C 6D 24 81 60 92 90 B0 86 AF AA AD B1 B0 
 HI HI AE C7 88 55 00 D4 67 CF 09 7C 85 2A 7D 60 92 90 B0 7E AF AA AD B0 B0 
 HI HI AE C7 88 55 00 D4 67 CF 09 7C 9B 35 7A 60 92 90 B0 CF AF A9 AD B0 B0 
 HI HI AE C7 88 55 00 D4 67 CF 09 7C AB 45 78 60 93 90 B0 8C AF A9 AD B0 B0 
 HI HI AE C7 88 55 00 D4 67 CF 09 7C B5 57 7D 60 93 90 B0 7E AF A9 AD B0 B0
  
 ------------------------ FO-29の軌道要素 ------------------------------        
 
  ■ 軌道要素1:「jamsat−keps:1060」より         
          SB KEPS @ AMSAT  $ORB00363.N
          2Line Orbital Elements 00363.AMSAT

 HR AMSAT ORBITAL ELEMENTS FOR AMATEUR SATELLITES IN NASA FORMAT
 FROM WA5QGD FORT WORTH,TX December 28, 2000
 SEND SUBSCRIBE/UNSUBSCRIBE TO majordomo@amsat.org ONLY
 BID: ORB00363.N

 DECODE 2-LINE ELSETS WITH THE FOLLOWING KEY:
 1 AAAAAU 00  0  0 BBBBB.BBBBBBBB  .CCCCCCCC  00000-0  00000-0 0  DDDZ
 2 AAAAA EEE.EEEE FFF.FFFF GGGGGGG HHH.HHHH III.IIII JJ.JJJJJJJJKKKKKZ
 KEY: A-CATALOGNUM B-EPOCHTIME C-DECAY D-ELSETNUM E-INCLINATION F-RAAN
 G-ECCENTRICITY H-ARGPERIGEE I-MNANOM J-MNMOTION K-ORBITNUM Z-CHECKSUM

  FO-29
  1 24278U 96046B   00362.68261880  .00000019  00000-0  52586-4 0 04027
  2 24278 098.5693 244.9441 0351937 086.1558 277.9739 13.52752620215458

 ■ 軌道要素2:「jamsat−keps:1061」より                    
         SB KEPS @ AMSAT  $ORB00363.O
         Orbital Elements  00363.OSCAR

  HR AMSAT ORBITAL ELEMENTS FOR OSCAR SATELLITES
  FROM WA5QGD FORT WORTH,TX December 28, 2000
  SEND SUBSCRIBE/UNSUBSCRIBE TO majordomo@amsat.org ONLY
  BID: ORB00363.O
  TO ALL RADIO AMATEURS BT

  Satellite: FO-29
 Catalog number: 24278
 Epoch time:      00362.68261880
 Element set:    0402
 Inclination:      098.5693 deg
 RA of node:       244.9441 deg
 Eccentricity:    0.0351937
 Arg of perigee:   086.1558 deg
 Mean anomaly:     277.9739 deg
 Mean motion:   13.52752620 rev/day
 Decay rate:        1.9e-07 rev/day^2
 Epoch rev:           21545
 Checksum:              334
 
-------------------  FO-29(JAS-2)のテレメトリに関する情報  ---------------------- 
 
2)上記テレメトリー12月29日のテレメトリ最終行を分析しておきます.
 
  AS21645C1     4JAN2001
  10:59-11:08(JST)
  Freq.435.800-.788MHz

 HI HI AE C7 88 55 00 D4 67 CF 09 7C B5 57 7D 60 93 90 B0 7E AF A9 AD B0 B0
    
  テレメトリ 内 容     換算算値 単 位  
      3C	磁気センサーZ軸	=	88725.5[nT]	
    3D	磁気センサX軸	=	42647.1[nT]	
    4A	太陽電池発生電流	=	 1225.5[mA]	
    4B	B充放電電流  	=	 -118.4[mA]	
    4C	B端子電圧  	=	   15.8[V]	
    4D	B中間端子電圧	=	    6.9[V]	
    5A	バス電圧   	=	   17.3[V]	
    5B	JTA送信電力	=	  720.9[mW]	
    5C 	構体温度1  	=	   13.9[℃]	
    5D	構体温度2  	=	   16.2[℃]	
    6A	構体温度3  	=	   14.7[℃]	
    6B	構体温度4  	=	   13.5[℃]	
    6C	Bセル温度  	=	   13.5[℃]	
	
 ===========================  FO-29(ふじ3号)のQSO情報等 ======================
   
 3)[jamsat-bb:

 ===============================================================================
   4)JARL のホームページに運用予定が記載されていましたのでご紹介します.
       ( http://www.jarl.or.jp/Japanese/3_Fuji/new/uy.htm )

        ■ ふじ3号/FOー29/JAS-2 ■  
   
     *** 運用予定について ***
    
    12月25日〜平成13年1月31日 アナログ系運用 

  *なお,運用予定は都合により変更することがありますので予めご了承願います。

 照会先 : lab@jarl.or.jp

 最新の情報はテレホンサービス(03−3942−1000)をお聞きください。  
 以後の運用につきましては平成13年1月上旬にお知らせ致します。
 
-----------------------    FO−20(JAS-1b)道要素   -------------------------
  5)
  ■ 軌道要素1 :出典はFO-29「ふじ3号」に同じ.
  
  FO-20
  1 20480U 90013C   00362.80798186 -.00000049  00000-0 -32350-4 0 02978
  2 20480 099.0750 097.1593 0540834 337.1663 020.6183 12.83284291510111
 
  ■ 軌道要素2 :出典はFO−29「ふじ3号」に同じ.
               
  Satellite: FO-20
  Catalog number: 20480
  Epoch time:      00362.80798186
  Element set:    0297
  Inclination:      099.0750 deg
  RA of node:       097.1593 deg
  Eccentricity:    0.0540834
  Arg of perigee:   337.1663 deg
  Mean anomaly:     020.6183 deg
  Mean motion:   12.83284291 rev/day
  Decay rate:       -4.9e-07 rev/day^2
  Epoch rev:           51011
   Checksum:              30
 --------------------------------------------------------------------------------
 
         ■ ふじ2号/FO−20/JAS-1b ■      
            
          「ふじ2号」 現況                                                                                  
             
   JAS-1b(ふじ2号)のCWテレメトリ信号に,1997年10月12日12時(JST)の
 日本上空通過時,3桁の数字が繰り返されるはずが3個の長音の繰り返しとなっているという
 異常が発見されました。この不具合は次の通過時からは回復していましたが13日15時20分の
 通過時に再び観測されました。現在はA0の送信が続いています。衛星のアナログ系中継モード
 動作は異常が無く,正常時のテレメトリ内容からは衛星の動作に異常は認められません。従って,
 直ちに衛星のミッションに影響することは無いと予想されますので,当面はアナログ系中継
 モードを継続します。衛星は既に打ち上げてから7年8ヶ月を経ておりますので,今後は監視を
 強化する予定です。アマチュア各位のレポートをお待ちします。
 -------------------------------------------------------------------------------- 
  1997年10月14日 00時35分 確認のテレメトリ音 151 KB (A0) 
  1997年10月14日 11時10分 確認のテレメトリ音 216 KB (異常キーイング) 

  以上 JARLのホ−ムページの http://www.jarl.or.jp/Japanese/3_Fuji/new/fuji.htm

===================== FO-20 ふじ2号 のテレメトリ観測結果 ====================

   12月22日(金)の12:21(JST)のパスの観測結果では以前観測した
 単一周波数のドップラー効果で周波数がずれていくのみの状態に戻っておりました。
                                         
   =============   JAS-2 (ふじ3号)と現在までの情報   ===========
  
  A.電話によるふじ3号の運用情報
      社団法人日本アマチュア連盟によるサービス
           TEL .   03− 3942 − 1000
  B.アマチュア無線FAXサービス
      JARLによるふじ3号の軌道情報(オービットカレンダー)
         FAX No.  03− 3233 −0055
  C.WWWブラウザで情報を簡単に見れる人のためにJAS−2
     ふじ3号の衛星としての運用されるまでの名前)の概要、打ち上げ
     までの状況、運用中における状況を説明したホームページを紹介し
     ておきます.
     社団法人日本アマチュア無線連盟(JARL)のホームページ

          http://www.jarl.or.jp/Japanese/3_Fuji/jasmenu.htm
 
     宇宙開発事業団(NASDA)ホームページ 
          http://www.nasda.go.jp/
         打上げ衛星 :地球観測プラットフォーム技術衛星(ADEOS) 
                       アマチュア衛星3号(JAS-2)
          http://yyy.tksc.nasda.go.jp/Home/Press/Press-j/jas-2_j.html        

  D.JAMSATによる軌道情報の活用
        JAMSATのホームページまたはjamsat−kepsの軌道要素より
      衛星の軌道情報を得る.
     JAMSATホームページ
               URL    http://www.jamsat.or.jp
       上記ホームページでは各地で行われるアマチュア通信衛星に関する
      ミューティングのお知らせや世界のアマチュア衛星に関する情報が
      満載されています.
 ========================================================================  
     JAMSATのメンバーのご協力によりJH6MME(高山 秀造)が
    執筆・編集を担当しております.ご指摘の意見、疑問やこのようにしたら
    というアイデアがありましたら小さなことでもかまいませんので気軽に下
    記アドレスまでご連絡ください.jamsat−newsからjas2
    infoへの転載をJH4PHW局坂井さんに担当して頂いております.  
                  E-mail : jh6mme@jamsat.or.jp : jh4phw@jamsat.or.jp
 ===============================   END  ===============================